Regional Weather Roundup
Issued by NWS Sterling, VA

Home | Current Version | Previous Version | Graphics & Text | Print | Product List | Glossary On
Versions: 1 2 3 4 5 6 7 8 9 10 11 12 13 14 15 16 17 18 19 20 21 22 23 24 25 26 27 28 29 30 31 32 33 34 35 36 37 38 39 40 41 42 43 44 45 46 47 48 49 50
468
ASUS41 KLWX 171911
RWRLWX

REGIONAL WEATHER ROUNDUP
NATIONAL WEATHER SERVICE BALTIMORE MD/WASHINGTON DC
200 PM EST FRI NOV 17 2017

Note: "FAIR" indicates few or no clouds below 12,000 feet
with no significant weather and/or obstructions to visibility.
 TC=TEMPERATURE CELSIUS

 * =Non NWS site. Station does not report precipitation (e.g. rain,
    snow, etc.), thunder, or fog.

DCZ001-MDZ009-015-VAZ040>042-051-053>054-172000-
WASHINGTON METRO

CITY           SKY/WX    TMP DP  RH WIND       PRES   REMARKS
WASHINGTON NAT MOSUNNY   53  28  38 W10       30.17F
DULLES         MOSUNNY   51  27  39 NW9       30.17F
ANDREWS AFB    SUNNY     51  25  36 NW13      30.14F
FT BELVOIR     SUNNY     54  26  33 NW10      30.16F
QUANTICO       SUNNY     55  26  32 NW6       30.18F
COLLEGE PARK*  SUNNY     51  25  35 NW5       30.15F
LEESBURG*      SUNNY     52  30  43 NW9       30.18S
MANASSAS*      SUNNY     53  27  36 N8        30.17F
GAITHERSBURG*  SUNNY     51  27  39 NW13      30.16F

$$

MDZ006>007-011-014-172000-
BALTIMORE METRO

CITY           SKY/WX    TMP DP  RH WIND       PRES   REMARKS
BWI AIRPORT    MOSUNNY   52  26  36 NW9G20    30.14F
MD SCIENCE CTR   N/A     52  26  36 MISG      30.17S
MARTIN STATE   MOSUNNY   52  30  43 NW6       30.16F
ANNAPOLIS      SUNNY     52  31  44 NW9       30.14F
FORT MEADE*    SUNNY     52  28  40 NW9       30.17F

$$

MDZ012-015-019>023-172000-
MARYLAND EASTERN SHORE

CITY           SKY/WX    TMP DP  RH WIND       PRES   REMARKS
OCEAN CITY     SUNNY     52  30  43 N14       30.13S
SALISBURY      SUNNY     52  30  43 NW16      30.13F
CAMBRIDGE*     SUNNY     50  28  43 NW9       30.15F
EASTON*        MOSUNNY   52  28  40 NW5       30.18F

$$

MDZ017>025-172000-
SOUTHERN MARYLAND

CITY           SKY/WX    TMP DP  RH WIND       PRES   REMARKS
PATUXENT RIVER MOSUNNY   53  29  39 NW12      30.14F
ST INIGOES     SUNNY     52  35  52 W10       30.14F
LEONARDTOWN*   SUNNY     52  28  40 W3        30.16F

$$

MDZ003>005-172000-
NORTH CENTRAL MARYLAND

CITY           SKY/WX    TMP DP  RH WIND       PRES   REMARKS
FREDERICK*     SUNNY     54  21  28 NW7       30.19F
HAGERSTOWN APT SUNNY     51  27  39 VRB5      30.16S
WESTMINSTER*   SUNNY     48  27  43 NW9       30.14S

$$

MDZ501>502-172000-
WESTERN MARYLAND

CITY           SKY/WX    TMP DP  RH WIND       PRES   REMARKS
OAKLAND*       CLOUDY    36  27  69 NW3       30.10F
CUMBERLAND*    CLOUDY    52  28  40 N5        30.20F

$$

VAZ025>031-172000-
SHENANDOAH VALLEY

CITY           SKY/WX    TMP DP  RH WIND       PRES   REMARKS
WINCHESTER*    CLOUDY    48  28  46 W7        30.16F
FRONT ROYAL*   CLOUDY    50  28  43 SE5       30.16S
LURAY*         CLOUDY    52  28  40 CALM      30.17S
NEW MARKET*    MOSUNNY   50  25  38 SW7       30.17S
STAUNTON*      SUNNY     48  28  45 CALM      30.18F
WAYNESBORO*    MOSUNNY   51  25  35 SW3       30.16F

$$

WVZ021-048>050-054>055-172000-
EASTERN WEST VIRGINIA PANHANDLE

CITY           SKY/WX    TMP DP  RH WIND       PRES   REMARKS
MARTINSBURG    SUNNY     52  24  33 NW7       30.15F
PETERSBURG*    MOSUNNY   50  29  43 CALM      30.16F

$$

VAZ036>039-050-172000-
CENTRAL FOOTHILLS

CITY           SKY/WX    TMP DP  RH WIND       PRES   REMARKS
CHARLOTTESVILL SUNNY     56  23  27 CALM      30.16F
CULPEPER*      MOSUNNY   54  22  28 W6        30.18S
ORANGE*        CLOUDY    52  28  40 CALM      30.17F
GORDONSVILLE*  CLOUDY    54  26  33 CALM      30.16F
WARRENTON*     NOT AVBL

$$

VAZ055>057-172000-
NORTH AND CENTRAL PIEDMONT

CITY           SKY/WX    TMP DP  RH WIND       PRES   REMARKS
FREDERICKSBRG* SUNNY     53  29  39 NW5       30.16F
STAFFORD*      SUNNY     53  26  35 NW5       30.20F

$$

NCZ024-NYZ072-PAZ021-071-VAZ022-071-172000-
OTHER REGIONAL OBSERVATIONS

CITY           SKY/WX    TMP DP  RH WIND       PRES   REMARKS
NEW YORK CITY  SUNNY     47  18  31 W10G23    30.07F
PHILADELPHIA   MOSUNNY   50  22  33 NW15      30.11F
PITTSBURGH     CLOUDY    41  28  60 CALM      30.17F
ROANOKE        MOSUNNY   53  29  39 CALM      30.17F
RICHMOND       PTSUNNY   53  28  38 NW6       30.17F
RALEIGH        CLOUDY    55  30  38 NE5       30.18F

$$

ANZ530>537-172000-
MARINE OBSERVATIONS

STATION/POSITION TIME  TEMP    WIND        PRES
                       AIR SEA DIR/SP/G
                 (UTC) (F)     (DEG/KT/KT) (MB)
THOMAS PT LIGHT  1900   50 53  330/  8/ 12   N/A
BALT KEY BRIDGE  1830   49     310/ 11/ 13 1020.7F
COVE POINT       1830   50     360/  7/ 11 1021.6F
LEWISETTA        1830   49 51  330/ 11/ 14 1021.2F
SOLOMONS ISLAND  1830   51 55  330/  8/ 10 1020.6F
PINEY POINT      1830          300/ 13/ 16   N/A

$$





USA.gov is the U.S. government's official web portal to all federal, state and local government web resources and services.